Location: Tr�vern
(48.0333°N, 4.6000°W)
Time: 07:46:47
(UTC+00:00)

NPP - Pass Details

Date: 14 July 2020
Orbit: 826 x 828 km, 98.7° (Epoch: 04 August)

Event Time Altitude Azimuth Distance (km) Brightness Sun altitude
Rises 02:58:37 0° 9° (N) 3,378 8.0 -12.2°
Reaches altitude 10° 03:01:05 10° 3° (N) 2,440 7.0 -12.0°
Maximum altitude 03:06:07 42° 294° (WNW) 1,173 4.3 -11.5°
Enters shadow 03:10:20 14° 229° (SW) 2,140 5.2 -11.1°
